Wetbulb
58.39 58.43 58.45 58.45 58.17 58.47 58.86 59.20 59.09 59.33 59.20 59.36 59.66 59.90 60.15 60.95 60.50 61.68 59.34 65.99 67.19 72.12 69.33 67.24 70.62 70.38 70.73 67.67 68.70 66.32 58.30 55.73 58.91 60.30 62.04 66.04 64.14 67.09 68.15 67.66 66.16 69.84 68.27 69.24 70.60
58.26 58.20 58.07 57.98 58.06 58.08 58.34 58.88 58.94 58.90 59.13 59.15 59.31 59.57 60.02 60.91 60.93 58.36 69.27 71.99 71.17 71.88 63.39 65.74 65.39 68.47 65.47 65.76 66.85 63.43 57.60 59.63 63.26 63.62 62.87 65.00 64.93 65.65 65.83 66.27 66.68 68.10 71.35 70.56 72.16
58.15 57.96 57.70 57.64 57.81 57.87 58.06 58.37 58.71 58.79 58.81 58.82 58.92 59.46 60.00 61.41 59.68 60.24 72.18 71.75 71.19 67.73 61.85 66.11 65.90 65.70 62.40 64.70 63.25 63.48 60.21 62.29 63.21 64.00 65.35 64.75 65.21 66.32 65.40 64.23 65.92 66.73 66.24 70.77 71.57
57.88 57.68 57.43 57.34 57.45 57.62 57.61 57.83 58.41 58.28 58.42 58.32 58.82 59.85 60.62 61.43 54.69 63.20 73.09 72.06 71.84 63.75 62.83 64.81 64.70 62.63 61.89 60.76 62.89 60.87 62.60 62.72 63.65 65.02 64.29 64.38 65.73 65.04 65.27 66.34 68.42 65.65 68.82 67.62 70.30
57.29 57.18 57.19 56.92 56.89 57.15 57.23 57.47 57.85 57.86 57.92 58.32 59.29 60.29 61.47 57.53 58.03 64.67 74.37 70.37 63.92 61.44 63.53 63.75 62.86 63.38 60.87 61.50 61.92 61.57 61.60 63.07 63.46 64.12 64.78 65.38 64.39 64.46 65.03 68.28 69.65 69.09 69.71 69.05 70.37
57.24 57.40 56.93 57.01 56.55 56.89 57.26 57.45 57.45 57.45 57.85 58.56 59.90 60.27 59.35 55.47 64.55 67.63 69.45 64.89 63.64 63.23 64.00 64.00 63.45 64.59 62.63 61.34 61.07 62.77 62.04 62.68 62.49 62.70 63.61 62.24 63.44 64.91 66.58 69.05 68.37 69.90 69.45 69.96 69.89
57.47 57.50 56.70 56.68 56.53 56.64 56.85 57.10 57.10 57.14 57.70 58.97 60.17 61.79 59.52 57.92 63.71 66.84 66.72 66.06 64.98 64.56 62.31 64.69 65.10 62.41 63.14 61.00 63.38 62.26 59.60 61.74 62.42 60.76 61.75 63.33 59.62 60.78 67.18 67.84 67.54 68.29 69.49 68.64 69.58
57.11 57.12 56.47 56.29 56.46 56.17 56.51 56.39 56.51 57.16 57.90 59.49 60.75 61.91 56.16 62.40 64.01 62.99 66.32 65.00 65.65 65.25 64.16 64.76 65.17 63.62 62.22 64.08 61.73 59.75 59.79 56.16 61.45 60.33 62.11 61.32 57.57 65.12 67.18 67.07 66.40 68.25 66.64 69.08 69.52
56.69 56.79 56.21 55.69 55.82 55.96 56.15 55.92 56.51 57.80 59.47 60.66 60.70 60.28 55.18 62.06 59.15 61.30 64.76 62.41 63.37 64.16 64.44 64.16 63.54 61.10 61.79 59.43 57.07 58.28 52.05 56.13 57.06 60.45 59.39 60.32 58.83 63.18 66.70 66.55 66.09 67.32 67.34 68.14 68.54
56.73 56.27 56.27 55.41 55.78 55.94 55.75 55.42 56.60 59.26 60.93 62.97 61.84 58.69 58.04 55.17 57.50 60.47 64.14 63.68 61.09 61.73 60.89 60.24 59.78 56.89 57.89 56.67 51.69 54.00 53.94 55.93 54.90 57.99 59.14 60.56 59.62 62.42 66.00 66.28 66.41 67.55 67.83 66.77 67.81
56.34 56.29 55.88 55.67 55.02 55.50 54.71 57.69 57.84 57.28 60.13 56.04 56.29 57.96 56.64 59.52 60.05 60.20 62.49 61.68 61.10 59.30 54.93 57.11 53.45 52.95 56.04 58.14 58.52 57.67 56.97 54.38 56.23 58.50 57.80 59.77 59.86 62.50 64.83 66.19 65.82 67.00 66.40 67.14 65.89
55.91 55.62 55.48 55.17 54.59 54.26 56.35 59.01 60.28 61.72 56.58 58.62 58.08 56.77 59.25 58.91 55.98 58.74 62.59 58.49 58.15 55.19 56.33 55.37 52.90 57.10 59.21 59.73 57.10 56.88 55.21 54.48 56.02 58.25 59.58 59.41 58.86 61.39 64.22 65.24 66.06 64.75 63.69 63.58 65.82
55.44 55.19 55.12 54.54 53.80 54.14 58.58 62.14 64.50 64.02 57.46 58.04 57.14 56.30 57.53 58.60 55.16 56.58 60.24 59.31 57.20 55.79 55.60 54.00 56.40 58.08 57.83 56.42 55.59 55.97 54.66 54.66 53.35 57.96 59.78 57.98 53.78 53.54 59.90 65.08 66.53 67.53 67.14 66.87 66.99
54.95 54.77 54.56 53.84 51.67 59.80 58.43 63.41 65.32 64.59 54.20 54.12 53.90 55.93 57.94 57.03 54.33 60.28 61.15 59.45 57.83 54.64 56.09 55.92 57.54 56.34 55.86 55.20 56.76 53.38 57.83 54.96 54.25 54.11 51.24 57.45 44.40 50.86 55.18 62.35 64.55 65.77 67.76 64.87 68.84
54.11 53.97 54.21 51.93 56.07 59.36 63.13 63.78 64.77 62.40 46.87 54.48 55.31 61.99 59.34 54.26 56.80 57.20 61.34 59.34 55.69 55.47 56.37 54.13 55.13 54.72 53.98 55.59 58.08 55.58 57.93 55.53 55.45 54.38 54.64 51.87 47.07 50.71 55.34 60.68 62.57 64.90 66.22 67.72 68.86
53.15 53.29 53.74 54.51 57.80 62.95 65.66 63.64 62.36 52.13 48.02 53.13 56.83 55.75 54.83 55.24 56.54 57.92 57.97 60.13 59.71 56.40 56.51 55.99 58.71 56.88 56.08 58.21 58.89 58.41 56.30 55.84 55.63 54.24 49.66 53.39 53.62 52.81 57.66 60.23 61.86 64.23 65.60 67.20 67.38
52.00 51.73 53.37 61.90 62.67 65.00 65.04 61.50 51.75 49.12 56.99 53.76 54.18 55.33 55.13 54.04 55.48 55.48 54.69 53.90 53.16 50.05 51.12 54.20 55.10 57.87 59.05 56.76 58.23 56.61 53.93 49.10 48.71 47.89 47.96 55.99 54.78 56.42 60.46 62.43 62.90 63.78 65.32 67.71 68.73
51.87 51.11 54.27 60.40 65.42 66.04 63.15 56.32 49.26 55.14 55.76 57.55 55.64 54.92 53.13 55.25 54.93 54.47 53.45 52.49 55.16 54.27 53.31 50.94 49.28 55.20 58.41 56.93 55.56 56.18 54.63 49.68 45.61 43.56 48.73 55.95 52.32 56.15 62.56 64.76 65.53 65.50 66.33 67.47 68.31
51.80 56.67 60.58 64.23 63.41 65.26 59.03 51.46 53.71 55.92 58.00 55.74 55.45 52.66 53.48 55.36 54.07 53.29 53.17 52.67 54.27 55.56 52.21 52.70 52.89 57.92 58.42 58.56 58.05 55.46 52.28 56.00 50.94 52.18 50.29 52.63 52.76 60.80 62.95 63.74 65.03 65.77 66.82 67.27 68.44
58.93 62.72 63.17 66.71 65.86 62.86 56.68 50.28 56.13 59.56 58.56 57.28 52.82 54.58 52.95 53.84 53.92 53.02 53.13 55.38 54.46 57.21 59.45 57.10 52.20 56.58 57.28 58.08 57.95 56.39 57.62 51.97 52.78 45.86 45.61 49.91 52.01 53.01 59.61 62.00 64.22 65.21 66.22 67.77 69.23
59.24 61.26 64.69 66.18 64.56 59.31 53.26 55.11 58.27 59.41 59.69 56.99 55.27 54.53 55.33 54.11 54.94 54.60 55.32 57.50 58.42 58.00 59.00 57.68 56.04 55.16 56.43 54.77 54.09 54.48 53.08 54.14 54.13 52.89 46.61 46.68 52.05 60.59 61.73 62.96 63.30 64.78 66.37 67.34 68.33
62.80 59.09 65.45 65.74 56.89 57.77 55.04 57.11 53.75 57.69 60.16 58.75 58.79 57.45 56.13 55.94 54.86 55.16 54.97 57.40 59.24 59.95 55.87 57.44 55.61 52.49 54.83 57.64 58.34 57.97 56.36 55.61 51.24 51.80 51.72 52.20 52.18 63.09 63.47 64.21 64.80 64.72 65.61 66.87 68.26
60.46 62.73 65.54 63.74 54.31 55.68 57.80 57.12 57.87 57.48 58.74 57.94 57.62 58.77 58.86 56.44 54.60 56.36 57.62 60.01 60.24 58.68 58.27 59.50 55.10 50.98 52.92 55.75 58.93 55.61 56.17 55.91 55.36 54.68 48.46 49.52 52.63 63.98 64.18 63.61 64.57 64.43 65.15 65.91 66.40
60.10 58.32 60.40 61.00 60.27 57.96 57.74 56.25 56.19 58.95 59.14 59.73 58.78 59.62 58.55 56.73 58.97 56.71 57.42 59.09 59.39 59.82 62.99 62.71 56.09 53.81 50.41 53.04 55.93 54.83 57.04 56.02 55.54 51.98 52.51 54.12 56.70 60.49 62.22 62.96 64.02 64.13 64.66 64.98 65.31
62.06 58.54 61.60 55.43 56.66 58.35 58.88 57.85 55.79 56.05 59.08 60.04 58.94 58.59 58.05 56.32 57.36 57.08 58.39 58.48 58.75 59.48 59.58 57.96 53.62 55.20 54.99 56.14 55.32 54.67 55.67 56.42 55.03 55.22 52.53 54.08 56.12 60.37 61.06 62.54 62.97 64.60 63.98 63.34 62.88
57.37 58.25 60.77 60.10 60.59 58.51 54.36 57.05 57.10 56.92 58.10 57.06 57.39 58.47 58.53 57.43 58.14 54.18 57.84 58.51 57.78 59.21 58.52 58.62 54.00 55.03 52.71 54.58 55.99 54.62 55.46 55.75 55.48 55.01 55.13 54.77 57.47 62.72 63.11 63.56 62.56 62.43 63.35 62.07 62.00
59.82 60.31 59.87 57.50 59.31 57.47 56.83 57.18 57.63 59.02 60.10 60.15 59.39 58.48 58.13 58.55 60.26 60.27 60.24 59.21 58.60 57.52 57.12 56.81 54.81 53.57 49.86 53.01 52.83 50.33 54.36 54.63 55.03 55.95 56.48 54.70 58.96 62.01 60.77 60.87 60.48 60.70 61.86 62.37 61.91
MSLP
1015.78 1015.58 1015.37 1015.22 1015.10 1014.94 1014.74 1014.55 1014.40 1014.28 1014.05 1013.81 1013.54 1013.30 1012.96 1012.54 1011.52 1010.61 1008.78 1007.13 1006.85 1006.92 1006.87 1005.69 1004.29 1003.35 1002.66 1002.72 1003.40 1006.73 1009.55 1007.57 1003.82 1002.68 1002.02 1001.58 1000.74 1000.82 1001.50 1002.78 1003.60 1003.99 1006.22 1007.27 1007.89
1015.73 1015.48 1015.27 1015.10 1014.98 1014.86 1014.67 1014.47 1014.29 1014.18 1013.98 1013.73 1013.47 1013.22 1012.93 1012.58 1010.97 1008.65 1006.76 1006.76 1006.71 1006.85 1006.42 1004.85 1003.45 1002.42 1002.40 1001.66 1002.13 1005.15 1007.41 1004.22 1002.85 1001.89 1001.34 1001.36 1000.97 1001.03 1001.54 1002.49 1003.41 1004.40 1005.08 1006.58 1006.64
1015.65 1015.38 1015.14 1015.00 1014.83 1014.71 1014.56 1014.38 1014.20 1014.09 1013.90 1013.65 1013.40 1013.16 1012.89 1012.42 1009.96 1006.40 1006.37 1006.58 1006.60 1006.70 1006.27 1004.90 1003.29 1002.47 1002.27 1001.27 1001.89 1002.21 1003.28 1002.86 1002.20 1001.76 1001.30 1000.91 1000.73 1001.08 1001.29 1002.58 1003.82 1005.23 1005.77 1007.02 1005.73
1015.58 1015.28 1015.04 1014.85 1014.67 1014.51 1014.40 1014.24 1014.08 1013.98 1013.80 1013.55 1013.30 1013.01 1012.76 1011.68 1007.91 1005.83 1006.35 1006.47 1006.54 1006.35 1005.99 1004.47 1003.05 1002.22 1002.10 1001.75 1001.49 1001.97 1001.89 1001.90 1001.59 1001.27 1001.04 1000.71 1000.75 1000.96 1001.35 1001.93 1003.38 1004.11 1005.54 1006.17 1005.91
1015.45 1015.14 1014.88 1014.68 1014.55 1014.35 1014.21 1014.08 1013.94 1013.84 1013.68 1013.44 1013.17 1012.92 1012.02 1009.64 1006.25 1005.64 1006.09 1006.34 1006.24 1006.11 1005.34 1003.79 1002.62 1001.84 1001.53 1001.30 1001.52 1001.41 1001.63 1001.35 1000.99 1000.94 1000.82 1000.88 1000.86 1001.08 1001.11 1001.62 1002.39 1003.93 1005.48 1005.28 1005.36
1015.32 1015.01 1014.73 1014.53 1014.35 1014.20 1014.02 1013.90 1013.79 1013.66 1013.51 1013.29 1013.07 1012.91 1011.39 1007.26 1004.04 1004.65 1005.26 1005.65 1005.20 1005.11 1004.41 1003.51 1002.44 1002.10 1001.94 1001.42 1001.95 1001.80 1001.55 1001.03 1000.72 1000.59 1000.48 1000.76 1001.11 1001.65 1001.05 1001.26 1002.13 1003.40 1004.07 1004.73 1005.13
1015.12 1014.82 1014.58 1014.34 1014.13 1013.99 1013.82 1013.71 1013.64 1013.47 1013.31 1013.09 1012.97 1012.29 1009.39 1005.30 1003.83 1004.01 1004.45 1004.54 1004.62 1004.21 1003.65 1002.96 1002.67 1002.54 1002.13 1001.51 1001.61 1001.79 1001.56 1001.22 1000.62 1000.41 1000.21 1000.65 1002.85 1003.07 1000.65 1000.90 1001.62 1002.85 1003.84 1005.20 1005.23
1014.94 1014.62 1014.39 1014.16 1013.93 1013.75 1013.64 1013.57 1013.47 1013.27 1013.07 1012.87 1012.78 1011.56 1007.37 1004.50 1004.00 1004.20 1003.91 1003.71 1003.85 1003.75 1003.38 1002.98 1003.11 1002.89 1002.27 1001.67 1001.70 1001.55 1002.29 1002.28 1000.68 1000.07 999.94 1000.12 1001.61 1001.02 1000.04 1000.93 1001.36 1003.22 1005.98 1005.04 1004.90
1014.77 1014.44 1014.16 1013.98 1013.77 1013.59 1013.47 1013.40 1013.20 1012.95 1012.72 1012.58 1012.01 1010.01 1005.74 1004.23 1004.11 1004.03 1003.61 1003.36 1003.51 1003.51 1003.54 1003.53 1003.51 1002.81 1002.02 1001.72 1001.92 1002.40 1003.09 1001.35 999.84 999.53 999.52 999.81 999.83 999.10 999.73 1000.21 1000.81 1003.07 1004.47 1004.28 1004.75
1014.57 1014.24 1013.94 1013.77 1013.59 1013.45 1013.36 1013.27 1012.96 1012.61 1012.09 1011.12 1009.97 1008.33 1004.66 1003.30 1003.30 1003.58 1003.29 1003.05 1003.15 1003.30 1003.40 1003.47 1003.18 1002.49 1001.63 1001.16 1002.08 1002.45 1002.52 1001.10 999.65 999.34 999.45 999.66 999.44 999.73 999.66 1000.05 1000.71 1002.72 1003.59 1004.30 1004.54
1014.38 1014.02 1013.73 1013.57 1013.49 1013.43 1013.29 1012.58 1012.04 1010.66 1009.18 1006.56 1005.44 1004.00 1002.26 1002.41 1002.57 1002.69 1002.83 1002.97 1002.86 1002.95 1002.78 1002.54 1002.24 1001.28 1000.45 1000.73 1001.76 1001.53 1001.08 999.88 999.37 999.45 999.73 1000.25 1001.05 1000.53 999.90 1000.61 1001.32 1002.75 1003.80 1005.17 1005.15
1014.21 1013.82 1013.54 1013.39 1013.39 1013.40 1013.02 1009.53 1005.62 1004.55 1005.19 1005.08 1004.16 1003.26 1002.05 1001.50 1001.95 1002.24 1002.50 1002.77 1002.48 1002.22 1002.33 1001.67 1001.00 1000.24 1000.20 1000.47 1000.58 1000.26 999.91 999.66 999.23 999.47 1000.28 1001.66 1002.34 1003.27 1001.22 1000.95 1001.55 1003.10 1005.58 1007.36 1006.68
1014.04 1013.66 1013.38 1013.31 1013.34 1013.21 1010.39 1007.27 1005.11 1004.31 1003.31 1002.32 1002.92 1002.19 1001.92 1001.95 1001.72 1001.75 1002.16 1002.16 1001.90 1001.69 1001.21 1000.49 999.61 999.67 999.82 1000.00 1000.03 999.59 999.22 999.24 999.35 1000.23 1002.01 1004.00 1005.63 1006.16 1004.80 1002.18 1001.66 1002.36 1005.07 1005.97 1006.06
1013.84 1013.53 1013.31 1013.21 1013.40 1009.77 1008.61 1006.88 1006.09 1004.88 1003.02 1001.04 1001.53 1001.25 1001.22 1001.64 1001.17 1001.02 1001.69 1001.74 1001.08 1000.98 1000.60 1000.00 999.56 999.59 999.77 999.52 999.25 999.13 998.72 998.87 999.43 1000.04 1001.89 1003.97 1009.47 1009.23 1006.26 1002.54 1001.99 1002.39 1003.82 1004.61 1004.21
1013.45 1013.09 1012.99 1013.15 1011.39 1007.54 1004.96 1005.51 1005.21 1004.60 1001.50 1000.04 1000.04 999.67 1000.36 1000.63 999.54 1000.42 1001.23 1001.37 1000.80 1000.47 1000.26 999.66 999.30 999.25 999.28 999.13 998.65 998.54 998.31 998.61 999.13 999.98 1001.17 1005.45 1007.53 1004.97 1004.17 1001.90 1001.39 1001.60 1002.20 1003.27 1003.28
1012.78 1012.31 1012.62 1012.32 1010.75 1006.85 1004.99 1004.67 1004.93 1003.59 999.52 998.85 999.26 999.59 999.89 1000.00 999.51 999.85 1000.76 1001.30 1000.80 1000.39 999.97 999.42 999.05 998.93 998.92 998.76 998.32 998.62 998.61 998.63 998.81 999.28 1000.54 1001.53 1003.52 1004.66 1002.11 1001.17 1000.74 1000.73 1001.29 1002.09 1002.91
1012.54 1012.20 1012.19 1009.20 1006.19 1005.52 1005.27 1004.74 1003.53 1000.81 998.22 997.99 998.57 998.97 999.16 999.24 999.02 999.62 1000.25 1000.78 1000.45 1000.34 999.66 999.33 999.01 998.78 998.65 998.23 998.11 998.41 998.38 997.97 998.37 999.16 999.68 1000.38 1001.29 1001.76 1001.09 1000.58 1000.41 1000.46 1001.25 1001.97 1002.91
1012.17 1011.95 1010.76 1008.88 1006.89 1005.63 1004.84 1004.11 1001.38 997.72 996.65 996.66 997.72 998.38 998.33 998.19 998.55 999.39 999.98 1000.00 1000.06 999.36 998.34 998.08 998.12 998.23 998.20 998.25 997.60 997.41 997.35 997.39 998.65 1001.85 1000.18 1000.82 1001.90 1001.44 1000.63 1000.39 1000.52 1000.62 1001.14 1001.88 1002.74
1012.17 1010.99 1008.87 1006.68 1006.99 1005.94 1004.42 1002.26 998.85 997.85 995.12 995.76 996.84 997.39 997.16 997.43 998.07 998.93 999.27 999.24 999.00 998.81 998.10 996.93 996.99 997.10 997.33 997.48 997.66 996.64 996.72 996.68 997.18 999.63 999.78 1001.70 1003.38 1001.15 1001.06 1001.07 1001.35 1001.74 1001.92 1002.40 1002.81
1010.75 1007.72 1005.25 1004.40 1005.60 1005.26 1003.61 1000.84 998.47 996.55 995.24 995.25 995.86 996.37 996.01 996.71 997.09 997.84 998.09 997.89 997.59 997.77 997.47 997.36 997.53 996.79 996.98 997.30 997.06 996.81 996.83 996.30 996.32 998.95 1000.57 1001.57 1002.31 1001.83 1001.39 1001.63 1001.99 1002.54 1003.03 1003.53 1003.87
1009.85 1005.74 1003.32 1003.81 1004.68 1004.00 1001.84 999.81 997.68 996.92 996.68 995.72 995.24 995.47 995.27 995.96 996.50 996.81 996.80 996.74 996.74 996.98 997.54 997.46 997.15 997.21 996.95 996.98 996.50 996.62 996.57 996.63 996.48 998.85 1000.04 1001.49 1000.88 1001.34 1001.54 1002.21 1002.98 1003.60 1003.98 1004.38 1004.86
1007.81 1004.26 1002.97 1003.35 1003.48 1002.32 1000.76 998.96 997.87 996.91 996.76 996.35 995.57 995.14 994.81 995.43 996.02 996.06 996.84 996.46 997.19 997.48 997.77 997.89 997.09 997.58 996.76 996.42 996.47 996.37 996.27 996.40 996.76 997.91 999.76 1000.37 1002.38 1001.18 1002.41 1002.84 1003.94 1004.92 1005.48 1005.69 1005.85
1008.05 1003.70 1002.87 1002.66 1001.73 1000.29 999.59 998.24 997.53 997.05 996.51 996.40 995.51 994.94 994.61 995.51 995.86 995.98 997.14 998.02 998.07 998.39 998.86 998.66 997.85 997.60 997.04 998.36 997.57 996.77 996.65 996.80 996.96 997.18 999.29 999.99 1002.79 1002.44 1003.29 1004.09 1004.80 1005.48 1006.15 1006.65 1006.92
1008.26 1002.87 1002.61 1002.43 1001.58 1000.47 998.71 997.85 997.39 997.42 996.96 996.03 995.83 995.37 995.57 996.42 995.86 996.19 997.45 998.47 998.59 999.20 999.81 999.68 998.79 998.41 998.40 999.85 1000.37 999.05 997.91 997.03 997.18 997.43 998.23 999.79 1001.39 1002.45 1003.30 1004.21 1005.22 1006.19 1006.60 1007.01 1007.37
1007.10 1005.01 1003.50 1001.28 1000.74 1000.08 998.61 997.49 997.01 997.05 997.49 997.22 996.79 996.33 996.25 996.09 996.99 997.32 997.05 998.24 999.04 999.92 1000.09 999.96 999.55 999.43 999.40 1000.11 1000.78 1000.25 999.05 998.36 997.61 998.09 998.95 999.82 1001.28 1003.09 1004.55 1004.42 1005.36 1006.17 1007.00 1007.57 1007.87
1007.59 1006.15 1004.46 1001.92 1000.21 999.66 998.90 998.22 997.45 997.10 997.07 997.28 997.32 996.96 997.10 997.29 998.45 998.58 998.21 998.31 998.38 999.81 999.91 999.86 999.85 1000.02 999.93 999.95 1000.11 999.54 998.62 998.05 998.37 998.60 999.72 1000.59 1002.57 1003.63 1004.75 1005.55 1005.95 1006.51 1007.03 1007.79 1008.17
1009.23 1007.83 1006.19 1003.05 1000.91 999.85 999.04 998.64 998.08 998.02 998.50 997.85 998.10 997.52 997.78 998.95 999.16 999.24 999.21 999.00 999.25 999.60 1000.01 1000.32 1000.27 1000.39 1000.07 999.98 999.47 999.27 998.74 998.41 998.79 999.03 1000.24 1001.37 1003.60 1004.60 1005.30 1006.05 1006.66 1006.79 1006.77 1007.72 1008.07
Wind_Speed
10 10 10 9 9 9 9 10 10 10 10 11 12 13 14 15 20 8 12 4 1 2 6 15 16 16 17 11 12 15 7 9 4 8 7 13 8 3 3 9 4 5 10 17 13
11 10 10 10 9 9 9 10 10 10 10 11 12 13 14 14 10 17 12 7 7 2 10 18 12 12 9 9 6 12 6 8 8 12 6 4 4 2 7 9 3 7 21 20 22
11 11 10 10 9 9 9 9 10 10 10 11 12 13 13 15 10 18 7 7 5 5 13 19 12 13 7 11 3 5 4 6 6 6 8 9 2 4 4 6 7 6 9 11 14
11 11 10 10 9 9 9 9 10 9 10 11 12 13 13 7 6 6 6 6 7 9 11 19 14 11 7 4 4 4 5 6 5 6 5 7 5 4 1 5 14 14 12 10 18
13 11 10 10 9 9 9 9 9 9 10 11 12 12 9 10 13 11 9 7 9 11 14 16 13 13 8 4 7 6 7 7 2 4 3 4 5 4 4 3 9 18 17 22 10
13 11 11 9 9 9 9 9 9 10 10 11 11 12 7 15 9 15 13 10 12 13 13 14 11 12 7 3 3 9 7 13 1 3 7 3 10 16 5 10 8 19 12 10 11
13 11 10 10 9 9 9 9 9 10 11 11 10 7 11 16 2 8 8 12 13 13 14 11 8 10 13 6 5 10 12 16 12 1 6 6 16 9 7 4 10 10 12 5 9
14 12 11 10 9 9 9 9 10 12 12 11 8 9 9 17 13 7 10 12 13 12 14 9 5 13 13 10 8 15 6 2 20 4 4 7 19 19 8 7 11 17 14 9 10
14 13 11 10 9 9 8 10 12 12 12 10 7 10 13 7 13 12 12 12 11 11 9 6 9 14 18 15 8 2 8 16 7 5 4 5 11 7 11 10 11 19 23 14 10
13 13 11 9 8 7 8 9 3 9 8 10 12 10 15 15 15 17 15 14 12 12 11 11 12 14 15 11 2 11 15 21 4 5 7 4 4 11 9 8 9 15 13 13 15
15 12 10 8 6 6 6 6 7 8 15 15 17 16 8 15 16 18 15 13 11 13 13 15 12 15 17 10 11 19 21 9 1 2 4 15 15 10 3 3 5 15 9 3 7
15 13 9 7 6 4 7 9 7 8 7 25 20 19 7 7 16 15 16 14 14 13 14 15 13 17 9 17 6 13 10 10 4 3 6 11 10 25 14 1 5 24 26 5 20
15 12 8 5 2 4 12 14 11 9 9 17 20 14 12 10 14 18 18 18 15 15 16 15 15 13 5 6 10 14 12 7 6 7 16 14 12 29 33 7 3 10 26 22 28
15 11 7 2 3 10 14 16 17 11 8 18 17 14 16 12 15 17 18 16 11 13 14 11 15 4 9 12 14 9 11 3 7 11 5 8 4 15 34 2 2 4 22 28 17
18 13 9 15 12 13 6 16 12 8 8 19 19 10 14 17 16 17 18 18 15 11 13 13 13 11 9 13 15 10 6 8 10 12 8 12 9 14 15 11 7 7 6 21 14
20 8 7 6 7 15 7 4 5 8 7 15 12 15 17 19 10 20 19 18 11 13 12 18 6 11 12 14 12 8 12 14 14 14 4 8 12 7 6 9 10 10 9 5 11
20 7 10 9 3 11 7 7 7 11 16 18 18 18 19 15 13 18 18 18 15 12 13 14 13 8 8 10 8 10 13 8 7 5 7 9 13 9 10 12 13 11 11 11 10
15 5 14 11 11 8 8 9 11 14 14 17 16 18 17 17 17 15 17 16 18 19 10 12 14 17 15 14 14 14 17 10 7 5 8 16 9 6 13 16 15 11 13 13 15
8 6 8 9 14 11 9 12 9 13 10 15 18 18 18 15 8 14 15 17 17 19 18 11 4 19 17 14 14 15 8 15 7 20 10 8 8 11 13 13 14 13 12 13 14
5 9 11 13 13 9 10 17 18 15 10 11 12 16 15 15 14 16 17 20 20 17 14 0 7 12 9 7 11 14 12 11 5 5 8 3 5 5 13 12 12 13 12 11 10
7 7 12 10 10 8 11 19 20 0 6 10 13 13 14 14 12 17 17 10 6 13 5 12 2 8 14 10 13 10 10 11 12 13 6 7 11 14 13 13 12 13 12 12 10
8 7 11 11 9 9 13 22 6 7 7 12 12 11 15 17 14 13 9 6 6 6 10 12 10 7 14 13 15 7 13 11 6 6 7 9 10 20 12 13 14 13 11 12 12
6 3 8 10 9 12 17 25 0 15 7 12 10 15 9 3 14 8 14 9 8 5 7 12 6 9 13 12 17 5 10 10 12 12 12 10 5 13 14 10 11 12 12 11 11
7 2 6 8 12 17 17 15 9 9 15 7 8 12 11 17 12 6 14 4 5 10 7 4 13 15 13 10 10 21 24 13 9 8 10 6 14 14 13 12 12 9 10 10 10
6 4 17 9 11 16 18 14 16 9 11 7 6 9 10 6 14 21 6 14 5 7 2 5 11 14 1 8 11 17 21 24 11 8 6 9 13 15 11 7 8 8 8 8 9
8 7 11 14 4 10 7 12 12 10 7 9 13 12 10 5 6 8 7 11 4 10 3 7 11 12 15 16 16 21 18 12 10 6 9 8 16 12 10 6 5 4 6 7 6
9 8 8 10 12 8 10 9 14 4 16 6 14 5 13 6 7 2 9 7 8 4 7 10 11 10 13 14 13 14 9 5 5 2 4 5 12 7 8 6 4 5 1 7 1
Wind_Direction
335 326 318 314 312 309 310 313 315 317 315 314 316 318 317 319 303 236 258 246 134 253 304 269 243 249 237 242 105 78 360 255 341 60 9 348 330 216 242 143 141 165 145 165 207
334 328 320 313 309 306 304 306 310 313 312 311 312 315 318 324 283 264 239 162 141 133 254 253 264 243 263 279 209 120 189 13 3 4 334 174 342 202 241 56 92 348 124 172 188
335 328 320 315 308 304 301 300 304 308 309 307 311 312 317 312 271 238 138 181 192 209 261 279 287 270 232 262 2 340 42 357 359 23 316 345 352 349 45 112 170 90 306 173 147
335 326 320 314 307 301 296 296 301 305 305 305 307 311 314 264 245 89 160 181 197 241 250 265 256 278 337 135 254 310 35 342 358 7 321 298 355 312 53 97 152 130 171 150 230
333 325 317 314 307 297 291 290 296 301 299 300 305 315 290 220 250 136 166 168 192 218 238 259 270 273 5 331 345 276 351 309 10 324 273 302 285 261 259 103 117 155 181 180 174
331 324 317 311 304 294 288 284 294 296 294 296 303 312 245 250 197 143 193 173 221 216 241 258 275 353 258 312 182 270 297 276 181 285 294 295 354 334 230 147 162 163 161 140 152
330 324 316 309 300 291 284 284 288 288 287 290 298 281 259 239 138 152 200 201 214 217 243 238 304 296 272 293 247 276 274 16 289 307 274 356 6 267 245 219 169 164 152 157 152
331 325 318 306 296 287 281 281 281 280 278 281 286 264 260 225 241 200 216 211 206 221 257 346 289 273 288 260 262 244 31 205 271 237 150 274 192 215 153 206 188 110 46 231 149
331 325 316 305 290 282 276 276 274 271 267 268 246 219 240 144 210 232 228 209 202 225 231 315 268 272 265 244 270 48 314 279 232 183 314 230 309 256 170 202 187 145 185 156 145
329 323 313 304 287 278 275 277 303 272 223 228 258 244 250 216 203 217 212 229 197 215 221 227 246 252 242 245 113 259 189 250 307 50 314 216 39 16 164 212 185 160 157 145 159
331 324 315 298 285 279 264 207 196 193 220 213 176 232 134 214 176 204 196 217 202 214 221 212 231 232 239 149 211 233 254 281 87 230 261 48 2 14 253 174 222 178 122 42 110
330 324 310 291 276 276 259 240 353 347 213 230 262 216 298 142 175 201 188 206 213 217 220 235 226 254 197 180 228 241 253 288 206 311 44 50 16 344 348 71 218 127 133 192 262
331 327 311 281 230 209 229 236 299 338 263 180 213 227 200 213 203 198 190 211 203 225 218 243 237 214 19 237 229 235 242 257 308 101 66 10 19 335 317 307 195 152 151 173 211
326 317 301 207 229 208 231 251 274 294 279 159 193 211 193 200 220 199 190 209 228 223 238 224 265 177 233 256 224 241 291 307 272 272 157 159 80 313 293 185 189 128 134 175 196
322 295 256 232 325 204 298 208 214 250 271 141 174 181 175 202 173 186 179 219 233 220 242 227 225 257 227 231 243 253 323 292 272 291 87 116 102 266 233 139 140 133 137 178 157
334 281 200 199 229 263 302 106 250 233 239 173 144 179 172 213 180 168 181 224 238 266 227 270 269 205 227 236 257 299 289 278 255 249 293 298 137 299 81 89 105 116 119 145 124
336 258 202 315 355 196 236 207 219 248 135 150 166 177 185 194 199 157 184 198 220 218 234 218 248 219 265 262 249 229 250 263 282 296 282 163 99 115 118 85 83 104 110 122 123
334 193 220 266 311 276 221 216 249 226 204 142 166 176 194 183 176 174 190 201 221 240 224 210 196 217 208 233 258 238 245 254 178 353 254 27 88 104 87 98 88 91 124 139 157
318 194 255 239 221 263 220 221 237 290 135 151 172 182 213 169 148 179 197 216 208 228 251 277 282 180 197 209 225 244 236 265 269 189 202 110 184 125 111 99 98 82 61 40 34
253 215 210 202 174 221 229 249 276 307 339 160 178 199 197 182 171 194 187 206 204 215 256 78 206 170 161 214 259 283 323 293 294 9 72 125 66 358 114 110 102 100 90 72 49
239 236 128 156 174 223 230 234 236 245 278 293 210 186 222 176 210 207 178 159 215 175 266 288 240 249 179 206 239 202 234 243 280 166 170 189 160 177 129 121 110 97 89 83 66
282 269 145 164 202 225 237 246 285 302 201 265 296 284 223 176 215 201 184 160 126 300 204 231 269 190 246 211 218 237 300 317 354 330 24 317 29 102 89 101 97 90 79 74 68
268 219 170 201 230 219 226 252 48 245 238 224 255 263 229 332 195 200 94 107 129 232 20 346 249 258 243 165 315 287 240 253 266 288 166 237 123 126 124 93 82 101 102 84 69
273 186 154 213 258 289 278 238 231 242 296 256 266 264 289 158 261 180 135 125 106 58 5 332 291 301 315 109 303 298 306 267 308 304 341 118 155 157 129 120 123 101 82 80 71
241 76 300 187 219 240 270 302 225 169 228 226 260 279 243 248 158 245 166 124 167 132 254 261 277 290 302 175 137 277 290 282 310 315 314 341 126 116 122 91 88 95 97 77 62
345 347 331 301 342 282 235 273 291 225 188 203 250 227 282 63 41 346 331 180 202 166 200 252 275 282 279 287 219 234 273 290 281 314 316 297 95 111 108 106 73 72 135 95 62
9 337 293 294 279 210 254 214 251 39 333 21 326 239 63 117 34 48 313 348 310 304 287 295 295 296 285 289 288 273 316 293 308 193 44 42 84 48 78 64 17 324 334 128 111